Wind_Speed
2 2 2 2 1 1 1 1 2 3 3 3 3 3 4 4 5 6 6 6 6 7 7 8 7 7 7 8 8 8 7 7 8 8 7 8 8 8 8 8 8 8 8
1 1 1 1 2 2 2 2 3 3 4 4 4 4 4 5 5 6 6 7 7 7 8 8 8 8 8 8 8 9 9 9 9 8 9 9 9 9 9 9 9 10 10
1 1 1 1 2 2 2 3 3 3 4 4 5 5 5 5 6 6 7 8 8 9 9 9 10 10 9 9 9 10 10 10 10 10 10 10 10 11 11 11 11 11 12
2 2 1 1 2 3 3 4 4 4 5 5 5 6 7 7 7 7 7 8 8 9 10 10 11 11 10 10 11 11 12 12 12 12 12 12 12 12 12 12 13 13 13
2 2 2 2 2 3 4 5 5 5 5 6 7 7 8 8 8 8 9 9 10 10 11 11 12 13 13 12 13 13 13 13 13 13 13 13 13 13 14 14 14 15 15
2 2 3 3 4 4 5 5 6 6 7 7 8 8 8 9 9 10 10 11 11 12 12 13 13 14 14 15 14 14 14 15 15 16 16 16 16 16 16 16 16 17 17
3 4 4 4 4 4 5 7 7 8 8 9 9 9 9 9 10 10 11 11 12 13 13 13 14 15 15 16 17 17 17 16 17 18 18 18 18 17 17 18 18 19 19
5 5 5 5 6 6 6 7 8 9 10 10 10 10 11 11 12 12 13 13 14 14 15 15 16 16 16 17 19 19 19 19 19 20 20 20 19 19 19 20 20 21 21
5 6 6 6 7 7 7 8 8 9 11 12 12 12 12 12 13 14 14 15 15 16 17 17 17 17 18 19 20 20 21 22 22 21 22 22 22 22 22 22 22 23 23
6 6 7 7 8 8 8 9 9 10 11 12 13 13 13 14 14 15 15 16 16 16 17 18 18 19 20 20 21 21 22 22 23 23 23 24 24 23 24 25 25 25 24
7 7 7 8 8 8 8 9 9 10 11 12 13 13 13 14 15 16 16 17 16 17 18 19 20 20 21 22 22 22 23 23 23 24 25 25 25 25 26 25 25 25 25
8 7 7 8 8 8 9 10 10 11 11 12 13 14 14 14 14 15 16 16 17 18 19 20 20 21 21 21 22 23 24 24 24 24 25 26 27 26 25 26 25 25 25
9 9 8 8 9 9 9 10 10 11 12 12 13 14 14 14 14 15 16 17 18 19 19 20 20 21 21 22 22 23 23 24 25 25 26 26 26 27 26 26 26 27 27
10 10 9 10 10 10 10 10 10 11 12 13 13 13 14 15 15 16 16 17 18 19 20 20 21 21 22 22 22 22 23 23 24 25 25 26 27 27 26 26 27 27 28
11 10 10 11 11 11 11 11 11 11 12 12 13 13 14 15 15 16 16 17 18 18 19 20 21 21 21 20 21 22 22 23 24 24 25 26 26 26 26 26 27 28 28
12 11 11 12 11 12 12 11 11 12 13 13 14 14 14 15 16 17 17 18 18 19 19 20 21 21 21 21 22 23 23 23 24 24 25 25 26 27 27 27 28 27 27
12 12 12 12 12 12 12 12 13 13 14 14 15 15 16 17 17 18 19 19 19 20 19 19 21 21 22 23 23 24 25 25 25 25 25 26 26 27 27 27 28 29 29
12 11 12 13 13 13 13 13 14 14 15 15 16 16 17 18 18 19 19 19 20 20 20 20 21 22 23 24 24 24 25 25 25 26 26 26 26 26 27 28 28 29 29
13 13 13 13 14 14 14 14 14 15 15 16 17 17 18 18 19 19 19 19 19 20 21 21 22 23 23 23 23 23 24 24 24 25 26 27 27 27 27 27 28 28 28
15 14 14 14 15 15 15 16 16 16 16 17 18 19 19 19 19 20 20 20 20 21 21 21 21 22 22 22 22 22 23 24 24 25 26 26 26 26 27 27 28 28 29
15 15 15 15 16 16 17 17 17 17 18 18 19 20 20 20 20 20 20 20 21 21 22 22 22 22 23 23 23 22 22 23 24 25 25 26 26 26 26 27 28 29 30
16 15 16 16 16 17 18 18 19 19 18 19 19 20 20 20 20 20 20 20 21 22 22 22 22 22 23 23 23 22 23 23 24 24 25 26 27 27 27 28 29 30 31
16 17 17 17 17 18 18 19 19 20 20 20 20 20 20 20 20 20 20 21 21 21 21 22 22 22 22 23 23 23 23 24 24 25 26 27 28 28 30 31 31 32 32
18 18 18 18 18 18 19 19 19 19 20 21 21 21 21 21 21 21 21 22 22 22 22 22 22 22 22 23 23 24 24 25 25 26 26 28 29 29 31 31 32 32 33
19 19 19 20 20 20 20 20 20 21 21 21 21 21 22 22 22 22 23 22 22 22 23 23 23 23 23 23 23 24 24 25 25 26 27 28 28 29 31 32 32 32 33
21 21 21 21 21 21 21 21 22 23 22 22 22 22 23 23 23 23 23 23 23 23 23 23 23 23 23 23 24 24 25 25 26 27 28 29 30 30 31 32 33 33 34
Wind_Direction
122 135 142 142 160 175 184 181 189 195 207 221 222 212 214 217 222 223 229 227 228 232 230 230 232 234 239 235 235 241 245 248 252 253 255 260 264 270 273 275 275 275 274
129 161 169 170 199 210 216 221 222 223 231 238 236 234 235 237 239 235 238 237 236 237 235 235 238 245 244 242 245 250 253 252 254 255 259 263 266 269 273 272 273 274 271
81 140 204 230 226 235 240 243 241 240 240 246 247 247 246 248 247 248 247 245 240 239 243 245 246 250 248 250 251 254 257 255 256 259 264 267 269 268 270 272 274 275 273
52 59 12 287 241 243 247 251 249 246 250 255 256 259 257 253 252 257 257 252 247 248 250 250 249 251 252 253 254 256 258 257 258 262 267 270 271 270 270 272 272 273 273
23 3 337 310 274 264 261 261 262 261 259 262 263 265 265 257 257 258 260 259 254 256 256 254 255 257 258 256 256 257 257 258 259 262 266 269 269 270 272 271 271 272 273
348 340 326 300 282 273 270 270 267 266 265 267 269 268 266 261 259 259 261 263 263 265 263 259 258 257 258 259 258 258 257 259 260 263 266 269 272 272 274 272 272 273 275
327 317 309 300 293 286 275 269 269 268 268 270 270 268 267 266 262 264 267 267 267 268 266 265 264 259 259 260 260 260 261 263 264 265 266 270 272 273 274 274 273 273 273
327 320 308 299 292 288 283 276 272 271 273 274 272 272 272 272 269 268 269 269 269 270 271 270 267 264 264 262 262 263 265 266 269 269 268 269 271 272 273 273 274 274 274
322 312 308 301 289 284 282 276 276 276 276 276 277 276 275 275 274 271 272 272 270 270 271 272 270 268 268 266 266 266 265 267 270 270 269 268 271 272 273 273 272 273 273
326 309 302 301 294 286 284 279 275 278 275 275 277 277 274 274 276 274 272 272 272 271 272 273 273 272 270 268 267 269 268 269 270 269 269 270 271 272 275 274 272 272 271
334 322 307 300 298 290 288 286 284 282 280 277 277 278 280 279 276 275 275 276 276 274 274 275 272 273 272 269 267 268 269 269 269 272 272 272 273 275 275 275 274 273 271
333 325 317 311 304 293 289 289 288 287 286 283 280 281 280 279 279 276 275 277 280 279 278 278 275 275 275 273 271 268 270 271 271 273 273 273 273 275 274 273 273 274 273
332 326 323 319 312 304 295 286 285 286 289 287 285 284 284 283 281 281 278 279 281 280 280 278 277 276 274 274 274 273 272 272 272 273 273 273 273 273 273 273 274 274 273
333 328 325 319 315 311 306 298 294 289 287 285 283 282 283 284 284 284 282 280 280 281 281 281 280 277 276 276 276 275 275 274 274 275 276 274 274 274 274 275 275 276 276
328 325 320 317 314 314 311 305 301 293 289 288 288 286 287 288 285 284 286 285 282 281 283 284 282 280 279 279 278 276 275 276 276 277 278 278 277 277 278 277 277 278 277
321 317 312 310 311 309 308 306 300 297 291 288 289 290 289 288 286 285 284 285 284 283 282 281 282 280 279 278 281 279 278 278 277 277 279 280 280 279 279 279 279 279 277
319 314 310 308 309 307 305 304 300 297 297 293 291 290 291 288 285 285 286 287 286 285 282 280 281 280 280 278 279 278 278 278 279 279 279 280 279 280 280 279 278 277 277
316 312 312 312 309 308 305 303 301 298 296 296 296 294 292 291 289 288 286 286 286 285 284 282 282 282 282 281 281 280 280 281 280 281 281 280 280 282 281 281 281 281 281
311 309 309 310 310 308 306 304 302 298 295 295 295 296 294 293 291 290 288 287 287 289 287 284 283 283 284 284 282 281 283 283 282 282 284 284 284 283 282 285 286 284 284
308 307 306 308 308 307 306 304 302 301 299 297 296 296 296 297 295 292 291 291 291 292 292 292 289 287 287 287 286 285 285 285 284 283 284 284 284 284 283 283 283 284 284
310 308 306 308 306 305 305 305 305 303 301 299 300 299 296 295 296 296 293 292 293 293 293 294 293 290 288 287 287 287 287 286 286 286 285 285 285 285 285 284 284 286 286
309 309 307 306 305 305 305 305 305 303 303 301 301 300 297 295 296 296 294 293 294 294 294 294 293 291 289 288 288 287 288 290 289 288 287 286 286 285 284 284 284 285 286
310 307 306 306 304 303 303 303 305 305 302 301 300 298 297 296 297 296 295 294 295 294 294 295 295 293 291 290 289 289 290 291 292 290 287 287 286 286 286 287 287 287 287
305 305 308 308 308 307 304 301 302 304 302 300 299 298 297 297 298 296 296 296 295 295 294 293 294 294 293 292 291 290 290 291 291 291 290 290 288 288 288 288 288 288 288
299 301 304 304 305 305 304 302 301 301 300 301 300 299 298 298 297 296 296 296 296 298 296 293 292 293 293 292 291 291 292 293 293 292 291 292 291 291 291 291 292 292 291
296 297 300 301 302 303 302 301 298 297 297 298 299 300 300 299 297 296 297 297 296 297 296 294 293 293 293 291 291 291 293 294 295 295 294 294 293 293 293 293 293 292 291
Height
5878 5878 5878 5879 5879 5880 5880 5880 5881 5881 5882 5882 5883 5883 5884 5884 5885 5885 5886 5887 5888 5888 5889 5890 5891 5891 5892 5893 5893 5894 5895 5895 5895 5896 5896 5896 5897 5897 5897 5897 5896 5896 5896
5878 5878 5879 5879 5879 5880 5880 5880 5880 5881 5882 5882 5883 5883 5884 5884 5884 5885 5885 5886 5887 5887 5888 5889 5890 5890 5890 5891 5892 5892 5893 5893 5894 5894 5894 5894 5894 5895 5895 5895 5894 5894 5894
5878 5878 5879 5879 5879 5879 5880 5880 5880 5881 5881 5882 5882 5882 5883 5883 5884 5884 5884 5885 5885 5886 5887 5887 5888 5888 5888 5889 5890 5891 5891 5892 5892 5892 5892 5892 5892 5892 5892 5892 5892 5892 5892
5878 5878 5878 5878 5879 5879 5879 5880 5880 5880 5881 5881 5881 5881 5882 5882 5882 5883 5883 5883 5884 5884 5885 5886 5886 5887 5887 5887 5888 5888 5889 5889 5889 5890 5890 5890 5890 5890 5890 5890 5889 5889 5889
5879 5878 5878 5878 5878 5878 5878 5879 5879 5879 5880 5880 5880 5880 5880 5881 5881 5881 5881 5882 5882 5882 5883 5883 5884 5884 5885 5885 5885 5886 5886 5886 5886 5887 5887 5887 5887 5887 5887 5887 5886 5886 5886
5879 5878 5878 5878 5878 5878 5878 5878 5878 5879 5879 5879 5879 5879 5879 5879 5879 5880 5880 5880 5880 5880 5880 5881 5881 5882 5882 5882 5882 5882 5883 5883 5883 5883 5883 5883 5883 5883 5883 5883 5883 5882 5882
5878 5878 5878 5877 5877 5877 5877 5877 5877 5877 5877 5877 5877 5877 5877 5877 5878 5877 5877 5878 5878 5878 5878 5878 5878 5878 5879 5879 5879 5879 5879 5880 5880 5880 5880 5880 5880 5879 5879 5879 5879 5878 5878
5878 5877 5876 5876 5876 5875 5875 5875 5875 5875 5875 5875 5875 5875 5875 5876 5875 5875 5875 5875 5875 5875 5875 5875 5875 5875 5875 5875 5875 5876 5876 5876 5876 5876 5876 5875 5875 5875 5875 5874 5874 5874 5874
5877 5876 5875 5875 5874 5874 5873 5873 5873 5873 5873 5873 5872 5873 5873 5873 5872 5873 5872 5872 5872 5872 5872 5872 5871 5871 5871 5871 5871 5872 5872 5871 5871 5871 5871 5871 5870 5870 5870 5869 5869 5868 5868
5875 5875 5874 5873 5873 5872 5871 5871 5871 5871 5870 5870 5870 5869 5869 5869 5869 5869 5869 5869 5868 5868 5868 5867 5867 5867 5867 5867 5867 5867 5866 5866 5866 5866 5866 5865 5865 5865 5864 5864 5863 5863 5862
5874 5873 5872 5872 5871 5870 5869 5869 5868 5868 5867 5867 5867 5866 5866 5865 5865 5865 5865 5865 5864 5864 5863 5863 5862 5862 5862 5861 5861 5861 5861 5861 5860 5860 5860 5859 5859 5859 5859 5858 5857 5857 5856
5874 5872 5871 5870 5869 5868 5867 5867 5866 5865 5865 5864 5863 5863 5862 5862 5861 5861 5861 5860 5860 5859 5858 5858 5857 5857 5856 5856 5856 5856 5856 5855 5855 5855 5854 5853 5853 5853 5852 5852 5851 5850 5850
5872 5871 5869 5868 5867 5865 5865 5864 5863 5862 5862 5861 5860 5859 5859 5858 5857 5857 5857 5856 5855 5854 5853 5853 5852 5851 5851 5850 5850 5850 5850 5850 5849 5849 5848 5848 5847 5846 5845 5845 5844 5844 5843
5871 5869 5868 5866 5865 5863 5862 5861 5860 5859 5858 5858 5857 5856 5855 5855 5854 5853 5852 5851 5850 5849 5848 5847 5846 5846 5846 5845 5845 5844 5844 5843 5843 5842 5842 5841 5840 5840 5839 5838 5838 5837 5836
5869 5867 5865 5864 5863 5861 5860 5859 5857 5856 5855 5854 5853 5852 5852 5851 5850 5849 5848 5847 5846 5845 5844 5842 5841 5841 5840 5839 5839 5838 5838 5837 5837 5836 5835 5834 5833 5833 5832 5831 5830 5830 5829
5866 5864 5863 5862 5860 5859 5858 5856 5854 5853 5852 5851 5850 5849 5848 5847 5846 5844 5843 5842 5841 5840 5839 5837 5836 5835 5834 5834 5833 5832 5832 5831 5830 5830 5829 5828 5827 5826 5825 5824 5823 5822 5822
5864 5862 5861 5859 5858 5856 5855 5853 5852 5850 5849 5848 5847 5845 5844 5842 5841 5840 5838 5837 5836 5835 5833 5832 5830 5829 5828 5828 5827 5826 5825 5824 5823 5823 5822 5821 5820 5820 5818 5817 5816 5815 5814
5861 5859 5858 5856 5855 5853 5852 5850 5848 5847 5846 5844 5843 5841 5840 5838 5837 5835 5833 5832 5831 5829 5828 5827 5825 5824 5823 5822 5821 5820 5819 5818 5817 5816 5815 5814 5813 5812 5811 5810 5809 5808 5807
5858 5856 5855 5853 5852 5850 5848 5847 5845 5843 5842 5840 5839 5837 5835 5833 5831 5830 5828 5826 5825 5824 5822 5821 5819 5818 5817 5815 5814 5813 5812 5811 5810 5809 5808 5808 5806 5805 5804 5803 5801 5800 5799
5855 5853 5852 5850 5848 5847 5845 5843 5841 5840 5838 5836 5835 5833 5831 5829 5826 5825 5823 5821 5820 5818 5817 5815 5813 5812 5811 5809 5808 5807 5806 5805 5804 5803 5801 5800 5799 5797 5796 5795 5794 5792 5791
5851 5850 5848 5846 5844 5842 5841 5839 5837 5835 5834 5832 5830 5828 5826 5824 5822 5820 5818 5816 5815 5813 5811 5809 5808 5806 5805 5804 5802 5801 5800 5798 5797 5795 5794 5793 5792 5790 5789 5787 5786 5784 5783
5848 5846 5845 5843 5840 5838 5836 5834 5832 5830 5829 5827 5825 5823 5821 5819 5817 5815 5813 5811 5809 5808 5806 5804 5802 5800 5799 5797 5796 5794 5793 5792 5790 5789 5787 5786 5784 5782 5781 5779 5778 5776 5775
5844 5842 5840 5838 5836 5833 5831 5829 5827 5825 5823 5821 5819 5817 5815 5814 5812 5809 5807 5805 5804 5802 5800 5798 5796 5794 5793 5791 5790 5788 5786 5785 5783 5782 5780 5778 5776 5774 5772 5771 5769 5767 5765
5840 5838 5836 5834 5831 5829 5826 5824 5821 5820 5818 5816 5814 5812 5810 5808 5806 5804 5802 5800 5798 5796 5794 5792 5790 5789 5787 5785 5783 5782 5780 5778 5776 5774 5772 5771 5768 5766 5764 5762 5760 5758 5756
5835 5833 5831 5829 5826 5823 5821 5818 5816 5814 5812 5810 5808 5806 5804 5802 5800 5798 5796 5794 5792 5790 5788 5786 5784 5782 5780 5778 5777 5775 5773 5771 5769 5767 5765 5763 5760 5758 5756 5753 5751 5749 5747
5829 5827 5825 5823 5820 5818 5815 5813 5810 5808 5806 5805 5803 5801 5799 5796 5794 5792 5790 5788 5786 5784 5782 5780 5778 5776 5774 5772 5770 5768 5766 5764 5762 5760 5757 5755 5752 5750 5747 5744 5742 5739 5737